OK,127,48,883,127,2014-10-01T01:40:00,0,28072653,201373
OK,127,48,883,127,2014-10-01T01:45:00,0,28073100,201373
OK,127,48,883,127,2014-10-01T01:50:00,0,28073548,201373
OK,127,48,883,127,2014-10-01T01:55:00,0,28073866,201373
OK,127,48,883,127,2014-10-01T02:00:00,0,28074315,201373
OK,127,48,883,127,2014-10-01T02:05:00,0,28074756,201373
OK,127,48,883,127,2014-10-01T02:10:00,0,28075204,201373
OK,127,48,883,127,2014-10-01T02:20:00,0,28075653,201373
OK,127,48,883,127,2014-10-01T02:25:00,0,28076485,201373
OK,127,48,883,127,2014-10-01T02:30:00,0,28076934,201373
OK,127,48,883,127,2014-10-01T02:35:00,0,28077383,201373
OK,127,48,883,127,2014-10-01T02:40:00,0,28077786,201373
OK,127,48,883,127,2014-10-01T02:45:00,0,28078235,201373
OK,127,48,883,127,2014-10-01T02:50:00,0,28078680,201373
OK,127,48,883,127,2014-10-01T02:55:00,0,28079129,201373
OK,127,48,883,127,2014-10-01T03:00:00,0,28079571,201373
OK,127,48,883,127,2014-10-01T03:05:00,0,28080020,201373
OK,127,48,883,127,2014-10-01T03:10:00,0,28080354,201373
OK,127,48,883,127,2014-10-01T03:15:00,0,28080803,201373
OK,127,48,883,127,2014-10-01T03:20:00,0,28081252,201373
OK,127,48,883,127,2014-10-01T03:25:00,0,28081699,201373
OK,127,48,883,127,2014-10-01T03:35:00,0,28082148,201373
OK,127,48,883,127,2014-10-01T03:40:00,0,28083013,201373
OK,127,48,883,127,2014-10-01T03:45:00,0,28083462,201373
OK,127,48,883,127,2014-10-01T03:55:00,0,28083911,201373
OK,127,48,883,127,2014-10-01T04:00:00,0,28084353,201373
OK,131,46,883,131,2014-10-01T04:05:00,2,28085226,201373
OK,131,46,883,131,2014-10-01T04:10:00,2,28085671,201373
OK,131,46,883,131,2014-10-01T04:15:00,0,28086120,201373
OK,131,46,883,131,2014-10-01T04:20:00,0,28086562,201373
OK,131,46,883,131,2014-10-01T04:25:00,0,28087011,201373
OK,109,56,883,109,2014-10-01T04:30:00,1,28087456,201373
OK,109,56,883,109,2014-10-01T04:35:00,2,28087905,201373
OK,91,67,883,91,2014-10-01T04:40:00,4,28088330,201373
OK,88,69,883,88,2014-10-01T04:45:00,5,28088778,201373
OK,92,66,883,92,2014-10-01T04:50:00,2,28089208,201373
OK,78,78,883,78,2014-10-01T04:55:00,3,28089657,201373
OK,114,53,883,114,2014-10-01T05:05:00,1,28090106,201373
OK,108,56,883,108,2014-10-01T05:10:00,4,28090899,201373
OK,107,57,883,107,2014-10-01T05:15:00,5,28091348,201373
OK,101,60,883,101,2014-10-01T05:20:00,2,28091765,201373
OK,102,60,883,102,2014-10-01T05:25:00,2,28092214,201373
OK,104,58,883,104,2014-10-01T05:30:00,2,28092658,201373
OK,122,50,883,122,2014-10-01T05:35:00,3,28093099,201373
OK,124,49,883,124,2014-10-01T05:40:00,2,28093530,201373
OK,124,49,883,124,2014-10-01T05:50:00,0,28093979,201373
OK,98,62,883,98,2014-10-01T05:55:00,2,28094835,201373
OK,100,61,883,100,2014-10-01T06:00:00,5,28095282,201373
OK,102,60,883,102,2014-10-01T06:05:00,5,28095731,201373
OK,110,55,883,110,2014-10-01T06:10:00,3,28096144,201373
OK,113,54,883,113,2014-10-01T06:15:00,4,28096593,201373
OK,119,51,883,119,2014-10-01T06:20:00,4,28097027,201373
OK,103,59,883,103,2014-10-01T06:25:00,4,28097476,201373
OK,108,56,883,108,2014-10-01T06:35:00,0,28097925,201373
OK,106,57,883,106,2014-10-01T06:40:00,3,28098806,201373
OK,108,56,883,108,2014-10-01T06:45:00,5,28099254,201373
OK,108,56,883,108,2014-10-01T06:50:00,1,28099597,201373
OK,152,40,883,152,2014-10-01T06:55:00,1,28100046,201373
OK,131,46,883,131,2014-10-01T07:00:00,2,28100353,201373
OK,111,55,883,111,2014-10-01T07:05:00,1,28100802,201373
OK,129,47,883,129,2014-10-01T07:10:00,1,28101173,201373
OK,129,47,883,129,2014-10-01T07:15:00,1,28101622,201373
OK,129,47,883,129,2014-10-01T07:20:00,0,28102058,201373
OK,103,59,883,103,2014-10-01T07:30:00,3,28102507,201373
OK,101,60,883,101,2014-10-01T07:35:00,3,28103381,201373
OK,89,68,883,89,2014-10-01T07:40:00,1,28103826,201373
OK,101,60,883,101,2014-10-01T07:45:00,2,28104271,201373
OK,101,60,883,101,2014-10-01T07:50:00,3,28104713,201373
OK,110,55,883,110,2014-10-01T07:55:00,2,28105157,201373
OK,104,58,883,104,2014-10-01T08:00:00,1,28105597,201373
OK,104,58,883,104,2014-10-01T08:05:00,0,28106046,201373
OK,104,58,883,104,2014-10-01T08:10:00,0,28106483,201373
OK,94,65,883,94,2014-10-01T08:15:00,2,28106889,201373
OK,95,64,883,95,2014-10-01T08:20:00,3,28107321,201373
OK,99,61,883,99,2014-10-01T08:25:00,1,28107770,201373
OK,99,61,883,99,2014-10-01T08:30:00,0,28108209,201373
OK,95,64,883,95,2014-10-01T08:35:00,1,28108658,201373
OK,96,63,883,96,2014-10-01T08:40:00,2,28109086,201373
OK,98,62,883,98,2014-10-01T08:45:00,3,28109535,201373
OK,131,46,883,131,2014-10-01T08:50:00,2,28109878,201373
OK,113,54,883,113,2014-10-01T08:55:00,1,28110327,201373
OK,101,60,883,101,2014-10-01T09:00:00,2,28110750,201373
OK,97,63,883,97,2014-10-01T09:05:00,1,28111199,201373
OK,97,63,883,97,2014-10-01T09:10:00,0,28111628,201373
OK,102,60,883,102,2014-10-01T09:15:00,1,28112077,201373
OK,105,58,883,105,2014-10-01T09:20:00,2,28112418,201373
OK,106,57,883,106,2014-10-01T09:25:00,2,28112867,201373
OK,99,61,883,99,2014-10-01T09:30:00,3,28113291,201373
OK,99,61,883,99,2014-10-01T09:35:00,1,28113740,201373
OK,103,59,883,103,2014-10-01T09:40:00,1,28114172,201373
OK,105,58,883,105,2014-10-01T09:45:00,2,28114621,201373
OK,107,57,883,107,2014-10-01T09:50:00,0,28114975,201373
OK,94,65,883,94,2014-10-01T09:55:00,1,28115424,201373
OK,99,61,883,99,2014-10-01T10:00:00,2,28115836,201373
OK,101,60,883,101,2014-10-01T10:05:00,2,28116285,201373
OK,100,61,883,100,2014-10-01T10:10:00,2,28116693,201373
OK,85,72,883,85,2014-10-01T10:15:00,1,28117142,201373
OK,85,72,883,85,2014-10-01T10:20:00,0,28117567,201373
OK,85,72,883,85,2014-10-01T10:25:00,0,28118016,201373
OK,103,59,883,103,2014-10-01T10:30:00,2,28118461,201373
OK,103,59,883,103,2014-10-01T10:35:00,4,28118908,201373
OK,120,51,883,120,2014-10-01T10:40:00,2,28119352,201373
OK,104,58,883,104,2014-10-01T10:45:00,3,28119800,201373
OK,104,58,883,104,2014-10-01T10:50:00,3,28120248,201373
OK,121,50,883,121,2014-10-01T10:55:00,1,28120697,201373
OK,111,55,883,111,2014-10-01T11:00:00,5,28121080,201373
OK,111,55,883,111,2014-10-01T11:05:00,2,28121529,201373
OK,99,61,883,99,2014-10-01T11:10:00,1,28121967,201373
OK,103,59,883,103,2014-10-01T11:15:00,2,28122416,201373
OK,106,57,883,106,2014-10-01T11:20:00,2,28122857,201373
OK,104,58,883,104,2014-10-01T11:25:00,3,28123306,201373
OK,103,59,883,103,2014-10-01T11:30:00,5,28123738,201373
OK,102,60,883,102,2014-10-01T11:35:00,6,28124187,201373
OK,100,61,883,100,2014-10-01T11:40:00,4,28124589,201373
OK,106,57,883,106,2014-10-01T11:45:00,3,28125038,201373
OK,102,60,883,102,2014-10-01T11:50:00,2,28125467,201373
OK,91,67,883,91,2014-10-01T11:55:00,1,28125916,201373
OK,104,58,883,104,2014-10-01T12:00:00,3,28126268,201373
OK,91,67,883,91,2014-10-01T12:05:00,0,28126717,201373
OK,109,56,883,109,2014-10-01T12:10:00,3,28127166,201373
OK,93,65,883,93,2014-10-01T12:15:00,0,28127615,201373
OK,95,64,883,95,2014-10-01T12:20:00,2,28128043,201373
OK,98,62,883,98,2014-10-01T12:25:00,4,28128492,201373
OK,106,57,883,106,2014-10-01T12:30:00,1,28128927,201373
OK,106,57,883,106,2014-10-01T12:35:00,0,28129376,201373
OK,110,55,883,110,2014-10-01T12:40:00,2,28129810,201373
OK,110,55,883,110,2014-10-01T12:45:00,2,28130259,201373
OK,109,56,883,109,2014-10-01T12:50:00,1,28130687,201373
OK,109,56,883,109,2014-10-01T12:55:00,0,28131136,201373
OK,104,58,883,104,2014-10-01T13:00:00,2,28131573,201373
OK,104,58,883,104,2014-10-01T13:05:00,2,28132022,201373
OK,112,54,883,112,2014-10-01T13:10:00,4,28132460,201373
OK,103,59,883,103,2014-10-01T13:15:00,3,28132907,201373
OK,106,57,883,106,2014-10-01T13:20:00,2,28133345,201373
OK,104,58,883,104,2014-10-01T13:25:00,3,28133794,201373
OK,109,56,883,109,2014-10-01T13:30:00,4,28134233,201373
OK,114,53,883,114,2014-10-01T13:35:00,8,28134682,201373
OK,118,51,883,118,2014-10-01T13:40:00,7,28135101,201373
OK,108,56,883,108,2014-10-01T13:45:00,12,28135550,201373
OK,109,56,883,109,2014-10-01T13:50:00,11,28135987,201373
OK,96,63,883,96,2014-10-01T13:55:00,4,28136436,201373
OK,95,64,883,95,2014-10-01T14:00:00,3,28136876,201373
OK,95,64,883,95,2014-10-01T14:05:00,0,28137325,201373
OK,116,52,883,116,2014-10-01T14:10:00,4,28137759,201373
OK,115,53,883,115,2014-10-01T14:15:00,3,28138208,201373
OK,101,60,883,101,2014-10-01T14:20:00,1,28138636,201373
OK,100,61,883,100,2014-10-01T14:25:00,5,28139085,201373
OK,100,61,883,100,2014-10-01T14:30:00,8,28139496,201373
OK,108,56,883,108,2014-10-01T14:35:00,6,28139945,201373
OK,113,54,883,113,2014-10-01T14:40:00,4,28140387,201373
OK,105,58,883,105,2014-10-01T14:45:00,8,28140836,201373
OK,103,59,883,103,2014-10-01T14:50:00,7,28141262,201373
OK,103,59,883,103,2014-10-01T14:55:00,4,28141711,201373
OK,104,58,883,104,2014-10-01T15:00:00,7,28142139,201373
OK,118,51,883,118,2014-10-01T15:05:00,3,28142588,201373
OK,116,52,883,116,2014-10-01T15:10:00,1,28143015,201373
OK,103,59,883,103,2014-10-01T15:15:00,3,28143464,201373
OK,103,59,883,103,2014-10-01T15:20:00,3,28143912,201373
OK,110,55,883,110,2014-10-01T15:25:00,5,28144361,201373
OK,114,53,883,114,2014-10-01T15:30:00,5,28144783,201373
OK,122,50,883,122,2014-10-01T15:35:00,1,28145196,201373
OK,102,60,883,102,2014-10-01T15:40:00,1,28145645,201373
OK,96,63,883,96,2014-10-01T15:45:00,3,28146094,201373
OK,89,68,883,89,2014-10-01T15:50:00,3,28146543,201373
OK,87,70,883,87,2014-10-01T15:55:00,0,28146952,201373
OK,105,58,883,105,2014-10-01T16:00:00,1,28147395,201373
OK,101,60,883,101,2014-10-01T16:05:00,1,28147844,201373
OK,104,58,883,104,2014-10-01T16:10:00,4,28148245,201373
OK,107,57,883,107,2014-10-01T16:15:00,3,28148694,201373
OK,119,51,883,119,2014-10-01T16:20:00,0,28149133,201373
OK,114,53,883,114,2014-10-01T16:25:00,2,28149582,201373
OK,112,54,883,112,2014-10-01T16:30:00,3,28150008,201373
OK,102,60,883,102,2014-10-01T16:35:00,2,28150457,201373
OK,102,60,883,102,2014-10-01T16:40:00,3,28150875,201373
OK,102,60,883,102,2014-10-01T16:45:00,5,28151324,201373
OK,109,56,883,109,2014-10-01T16:55:00,2,28151773,201373
OK,109,56,883,109,2014-10-01T17:00:00,2,28152222,201373
OK,105,58,883,105,2014-10-01T17:05:00,3,28152668,201373
OK,105,58,883,105,2014-10-01T17:10:00,4,28153115,201373
OK,98,62,883,98,2014-10-01T17:15:00,2,28153564,201373
OK,91,67,883,91,2014-10-01T17:20:00,1,28153974,201373
OK,120,51,883,120,2014-10-01T17:25:00,3,28154423,201373
OK,129,47,883,129,2014-10-01T17:30:00,2,28154865,201373
OK,97,63,883,97,2014-10-01T17:35:00,1,28155313,201373
OK,97,63,883,97,2014-10-01T17:40:00,1,28155731,201373
OK,121,50,883,121,2014-10-01T17:45:00,3,28156180,201373
OK,121,50,883,121,2014-10-01T17:50:00,3,28156629,201373
OK,96,63,883,96,2014-10-01T17:55:00,1,28157067,201373
OK,101,60,883,101,2014-10-01T18:00:00,2,28157497,201373
OK,100,61,883,100,2014-10-01T18:05:00,2,28157945,201373
OK,94,65,883,94,2014-10-01T18:10:00,1,28158389,201373
OK,104,58,883,104,2014-10-01T18:15:00,2,28158835,201373
OK,103,59,883,103,2014-10-01T18:20:00,4,28159281,201373
OK,94,65,883,94,2014-10-01T18:25:00,0,28159616,201373
OK,88,69,883,88,2014-10-01T18:30:00,1,28160065,201373
OK,95,64,883,95,2014-10-01T18:35:00,2,28160514,201373
OK,111,55,883,111,2014-10-01T18:40:00,2,28160952,201373
OK,96,63,883,96,2014-10-01T18:45:00,3,28161401,201373
OK,90,68,883,90,2014-10-01T18:50:00,3,28161818,201373
OK,96,63,883,96,2014-10-01T19:00:00,1,28162267,201373
OK,96,63,883,96,2014-10-01T19:05:00,1,28163100,201373
OK,101,60,883,101,2014-10-01T19:10:00,1,28163548,201373
OK,105,58,883,105,2014-10-01T19:15:00,5,28163997,201373
OK,106,57,883,106,2014-10-01T19:20:00,6,28164428,201373
OK,101,60,883,101,2014-10-01T19:25:00,3,28164877,201373
OK,103,59,883,103,2014-10-01T19:30:00,0,28165302,201373
OK,108,56,883,108,2014-10-01T19:35:00,1,28165750,201373
OK,103,59,883,103,2014-10-01T19:40:00,0,28166191,201373
OK,89,68,883,89,2014-10-01T19:45:00,2,28166553,201373
OK,80,76,883,80,2014-10-01T19:50:00,2,28167002,201373
OK,104,58,883,104,2014-10-01T19:55:00,1,28167431,201373
OK,104,58,883,104,2014-10-01T20:00:00,0,28167865,201373
OK,103,59,883,103,2014-10-01T20:05:00,1,28168313,201373
OK,109,56,883,109,2014-10-01T20:10:00,2,28168758,201373
OK,105,58,883,105,2014-10-01T20:15:00,2,28169207,201373
OK,95,64,883,95,2014-10-01T20:20:00,0,28169655,201373
OK,92,66,883,92,2014-10-01T20:25:00,1,28170081,201373
OK,92,66,883,92,2014-10-01T20:30:00,1,28170526,201373
OK,101,60,883,101,2014-10-01T20:35:00,1,28170974,201373
OK,101,60,883,101,2014-10-01T20:40:00,1,28171411,201373
OK,101,60,883,101,2014-10-01T20:45:00,0,28171857,201373
OK,108,56,883,108,2014-10-01T20:50:00,1,28172305,201373
OK,94,65,883,94,2014-10-01T20:55:00,2,28172751,201373
OK,81,75,883,81,2014-10-01T21:00:00,0,28173197,201373
OK,81,75,883,81,2014-10-01T21:05:00,0,28173646,201373
OK,81,75,883,81,2014-10-01T21:10:00,0,28174087,201373
OK,81,75,883,81,2014-10-01T21:15:00,0,28174536,201373
OK,81,75,883,81,2014-10-01T21:20:00,0,28174962,201373
OK,125,48,883,125,2014-10-01T21:25:00,0,28175358,201373
OK,102,60,883,102,2014-10-01T21:30:00,1,28175807,201373
OK,102,60,883,102,2014-10-01T21:35:00,1,28176256,201373
OK,99,61,883,99,2014-10-01T21:45:00,0,28176705,201373
OK,99,61,883,99,2014-10-01T21:50:00,0,28177501,201373
OK,94,65,883,94,2014-10-01T21:55:00,1,28177947,201373
OK,94,65,883,94,2014-10-01T22:00:00,0,28178396,201373
OK,94,65,883,94,2014-10-01T22:05:00,0,28178843,201373
OK,94,65,883,94,2014-10-01T22:10:00,0,28179277,201373
OK,94,65,883,94,2014-10-01T22:15:00,0,28179720,201373
OK,94,65,883,94,2014-10-01T22:20:00,0,28180167,201373
OK,94,65,883,94,2014-10-01T22:25:00,0,28180565,201373
OK,94,65,883,94,2014-10-01T22:30:00,0,28181014,201373
OK,94,65,883,94,2014-10-01T22:35:00,0,28181438,201373
OK,94,65,883,94,2014-10-01T22:40:00,0,28181886,201373
OK,94,65,883,94,2014-10-01T22:45:00,0,28182333,201373
OK,94,65,883,94,2014-10-01T22:50:00,0,28182782,201373
OK,94,65,883,94,2014-10-01T22:55:00,0,28183199,201373
OK,94,65,883,94,2014-10-01T23:00:00,0,28183632,201373
OK,94,65,883,94,2014-10-01T23:05:00,0,28184077,201373
OK,94,65,883,94,2014-10-01T23:10:00,0,28184526,201373
OK,94,65,883,94,2014-10-01T23:15:00,0,28184961,201373
OK,94,65,883,94,2014-10-01T23:20:00,0,28185409,201373
OK,94,65,883,94,2014-10-01T23:25:00,0,28185840,201373
OK,94,65,883,94,2014-10-01T23:30:00,0,28186232,201373
OK,94,65,883,94,2014-10-01T23:40:00,0,28187079,201373
OK,94,65,883,94,2014-10-01T23:45:00,0,28187521,201373
OK,94,65,883,94,2014-10-01T23:50:00,0,28187970,201373
OK,94,65,883,94,2014-10-01T23:55:00,0,28188411,201373
OK,94,65,883,94,2014-10-02T00:00:00,0,28188847,201373
OK,94,65,883,94,2014-10-02T00:05:00,0,28189296,201373
OK,94,65,883,94,2014-10-02T00:10:00,0,28189718,201373
OK,94,65,883,94,2014-10-02T00:15:00,0,28190167,201373
OK,94,65,883,94,2014-10-02T00:20:00,0,28190520,201373
OK,94,65,883,94,2014-10-02T00:25:00,0,28190969,201373
OK,94,65,883,94,2014-10-02T00:30:00,0,28191418,201373
OK,94,65,883,94,2014-10-02T00:35:00,0,28191724,201373
OK,94,65,883,94,2014-10-02T00:40:00,0,28192173,201373
OK,94,65,883,94,2014-10-02T00:45:00,0,28192606,201373
OK,94,65,883,94,2014-10-02T00:50:00,0,28193050,201373
OK,94,65,883,94,2014-10-02T00:55:00,0,28193417,201373
OK,94,65,883,94,2014-10-02T01:05:00,0,28194315,201373
OK,94,65,883,94,2014-10-02T01:15:00,0,28194764,201373
OK,94,65,883,94,2014-10-02T01:20:00,0,28195449,201373
OK,94,65,883,94,2014-10-02T01:30:00,0,28195898,201373
OK,94,65,883,94,2014-10-02T01:35:00,0,28196631,201373
OK,94,65,883,94,2014-10-02T01:40:00,0,28197054,201373
OK,94,65,883,94,2014-10-02T01:45:00,0,28197503,201373
OK,94,65,883,94,2014-10-02T01:50:00,0,28197951,201373
OK,94,65,883,94,2014-10-02T01:55:00,0,28198399,201373
OK,94,65,883,94,2014-10-02T02:05:00,0,28198848,201373
OK,94,65,883,94,2014-10-02T02:10:00,0,28199662,201373
OK,94,65,883,94,2014-10-02T02:15:00,0,28200104,201373
OK,94,65,883,94,2014-10-02T02:20:00,0,28200547,201373
OK,94,65,883,94,2014-10-02T02:25:00,0,28200996,201373
OK,94,65,883,94,2014-10-02T02:30:00,0,28201427,201373
OK,94,65,883,94,2014-10-02T02:45:00,0,28202325,201373
OK,94,65,883,94,2014-10-02T02:50:00,0,28202767,201373
OK,94,65,883,94,2014-10-02T02:55:00,0,28203215,201373
OK,94,65,883,94,2014-10-02T03:00:00,0,28203650,201373
OK,94,65,883,94,2014-10-02T03:10:00,0,28204099,201373
OK,97,63,883,97,2014-10-02T03:25:00,0,28204548,201373
OK,97,63,883,97,2014-10-02T03:30:00,0,28204997,201373
OK,97,63,883,97,2014-10-02T03:35:00,0,28205425,201373
OK,97,63,883,97,2014-10-02T03:40:00,0,28205872,201373
OK,119,51,883,119,2014-10-02T03:45:00,2,28206255,201373
OK,119,51,883,119,2014-10-02T03:55:00,0,28207153,201373
OK,119,51,883,119,2014-10-02T04:00:00,0,28207573,201373
OK,119,51,883,119,2014-10-02T04:05:00,0,28208021,201373
OK,218,28,883,218,2014-10-02T04:10:00,1,28208448,201373
OK,218,28,883,218,2014-10-02T04:15:00,0,28208897,201373
OK,218,28,883,218,2014-10-02T04:20:00,0,28209335,201373
OK,218,28,883,218,2014-10-02T04:25:00,0,28209784,201373
OK,140,43,883,140,2014-10-02T04:30:00,1,28210207,201373
OK,140,43,883,140,2014-10-02T04:35:00,1,28210656,201373
OK,140,43,883,140,2014-10-02T04:40:00,0,28211081,201373
OK,140,43,883,140,2014-10-02T04:45:00,0,28211525,201373
OK,140,43,883,140,2014-10-02T04:50:00,0,28211903,201373
OK,91,67,883,91,2014-10-02T04:55:00,1,28212352,201373
OK,91,67,883,91,2014-10-02T05:00:00,0,28212781,201373
OK,98,62,883,98,2014-10-02T05:05:00,1,28213230,201373
OK,98,62,883,98,2014-10-02T05:10:00,0,28213668,201373
OK,100,61,883,100,2014-10-02T05:15:00,2,28214117,201373
OK,99,61,883,99,2014-10-02T05:20:00,1,28214530,201373
OK,114,53,883,114,2014-10-02T05:25:00,0,28214979,201373
OK,114,53,883,114,2014-10-02T05:30:00,0,28215395,201373
OK,91,67,883,91,2014-10-02T05:40:00,1,28215844,201373
OK,91,67,883,91,2014-10-02T05:45:00,0,28216623,201373
OK,91,67,883,91,2014-10-02T05:50:00,0,28217070,201373
OK,96,63,883,96,2014-10-02T05:55:00,1,28217519,201373
OK,96,63,883,96,2014-10-02T06:00:00,1,28217958,201373
OK,96,63,883,96,2014-10-02T06:05:00,0,28218407,201373
OK,96,63,883,96,2014-10-02T06:10:00,0,28218827,201373
OK,109,56,883,109,2014-10-02T06:15:00,2,28219276,201373
OK,109,56,883,109,2014-10-02T06:20:00,0,28219649,201373
OK,109,56,883,109,2014-10-02T06:25:00,0,28220098,201373
OK,109,56,883,109,2014-10-02T06:30:00,0,28220532,201373
OK,107,57,883,107,2014-10-02T06:40:00,1,28220981,201373
OK,107,57,883,107,2014-10-02T06:45:00,0,28221648,201373
OK,104,58,883,104,2014-10-02T07:00:00,4,28222242,201373
OK,107,57,883,107,2014-10-02T07:05:00,2,28222691,201373
OK,115,53,883,115,2014-10-02T07:10:00,0,28223122,201373
OK,115,53,883,115,2014-10-02T07:15:00,0,28223558,201373
OK,115,53,883,115,2014-10-02T07:20:00,0,28224005,201373
OK,84,72,883,84,2014-10-02T07:25:00,0,28224360,201373
OK,84,72,883,84,2014-10-02T07:30:00,0,28224809,201373
OK,91,67,883,91,2014-10-02T07:35:00,2,28225258,201373
OK,91,67,883,91,2014-10-02T07:40:00,1,28225580,201373
OK,101,60,883,101,2014-10-02T07:50:00,5,28226470,201373
OK,101,60,883,101,2014-10-02T07:55:00,2,28226919,201373
OK,101,60,883,101,2014-10-02T08:00:00,0,28227334,201373
OK,99,61,883,99,2014-10-02T08:05:00,3,28227783,201373
OK,92,66,883,92,2014-10-02T08:10:00,0,28228142,201373
OK,92,66,883,92,2014-10-02T08:15:00,0,28228591,201373
OK,92,66,883,92,2014-10-02T08:20:00,0,28229001,201373
OK,106,57,883,106,2014-10-02T08:25:00,5,28229450,201373
OK,114,53,883,114,2014-10-02T08:30:00,2,28229800,201373
OK,102,60,883,102,2014-10-02T08:40:00,0,28230249,201373
OK,102,60,883,102,2014-10-02T08:45:00,0,28231064,201373
OK,104,58,883,104,2014-10-02T08:50:00,2,28231487,201373
OK,115,53,883,115,2014-10-02T08:55:00,1,28231936,201373
OK,100,61,883,100,2014-10-02T09:00:00,2,28232278,201373
OK,100,61,883,100,2014-10-02T09:10:00,0,28232727,201373
OK,115,53,883,115,2014-10-02T09:15:00,7,28233176,201373
OK,115,53,883,115,2014-10-02T09:20:00,4,28233600,201373
OK,96,63,883,96,2014-10-02T09:25:00,2,28234049,201373
OK,91,67,883,91,2014-10-02T09:30:00,1,28234382,201373
OK,163,37,883,163,2014-10-02T09:35:00,2,28234831,201373
OK,103,59,883,103,2014-10-02T09:40:00,1,28235258,201373
OK,102,60,883,102,2014-10-02T09:45:00,1,28235707,201373
OK,102,60,883,102,2014-10-02T09:50:00,0,28236150,201373
OK,100,61,883,100,2014-10-02T09:55:00,1,28236597,201373
OK,100,61,883,100,2014-10-02T10:00:00,0,28237000,201373
OK,100,61,883,100,2014-10-02T10:05:00,0,28237448,201373
OK,102,60,883,102,2014-10-02T10:10:00,2,28237896,201373
OK,119,51,883,119,2014-10-02T10:15:00,1,28238343,201373
OK,92,66,883,92,2014-10-02T10:20:00,3,28238784,201373
OK,92,66,883,92,2014-10-02T10:25:00,3,28239233,201373
OK,101,60,883,101,2014-10-02T10:30:00,0,28239663,201373
OK,104,58,883,104,2014-10-02T10:35:00,2,28240112,201373
OK,112,54,883,112,2014-10-02T10:40:00,2,28240556,201373
OK,113,54,883,113,2014-10-02T10:45:00,1,28241005,201373
OK,113,54,883,113,2014-10-02T10:50:00,0,28241437,201373
OK,111,55,883,111,2014-10-02T10:55:00,4,28241885,201373
OK,97,63,883,97,2014-10-02T11:00:00,1,28242281,201373
OK,97,63,883,97,2014-10-02T11:05:00,0,28242730,201373
OK,101,60,883,101,2014-10-02T11:15:00,2,28243179,201373
OK,116,52,883,116,2014-10-02T11:20:00,2,28243942,201373
OK,105,58,883,105,2014-10-02T11:25:00,1,28244371,201373
OK,105,58,883,105,2014-10-02T11:30:00,0,28244820,201373
OK,107,57,883,107,2014-10-02T11:35:00,1,28245269,201373
OK,107,57,883,107,2014-10-02T11:40:00,0,28245675,201373
OK,107,57,883,107,2014-10-02T11:45:00,0,28246124,201373
OK,116,52,883,116,2014-10-02T11:50:00,6,28246561,201373
OK,104,58,883,104,2014-10-02T11:55:00,6,28247010,201373
OK,102,60,883,102,2014-10-02T12:00:00,8,28247456,201373
OK,103,59,883,103,2014-10-02T12:05:00,5,28247886,201373
OK,104,58,883,104,2014-10-02T12:10:00,0,28248335,201373
OK,130,47,883,130,2014-10-02T12:15:00,1,28248782,201373
OK,130,47,883,130,2014-10-02T12:20:00,0,28249210,201373
OK,113,54,883,113,2014-10-02T12:25:00,1,28249654,201373
OK,113,54,883,113,2014-10-02T12:30:00,0,28250073,201373
OK,122,50,883,122,2014-10-02T12:35:00,3,28250471,201373
OK,92,66,883,92,2014-10-02T12:45:00,1,28251251,201373
OK,100,61,883,100,2014-10-02T13:20:00,6,28251796,201373
OK,112,54,883,112,2014-10-02T13:30:00,5,28252380,201373
OK,115,53,883,115,2014-10-02T13:35:00,2,28252822,201373
OK,115,53,883,115,2014-10-02T13:40:00,0,28253239,201373
OK,120,51,883,120,2014-10-02T13:45:00,4,28253688,201373
OK,161,38,883,161,2014-10-02T13:50:00,2,28254093,201373
OK,107,57,883,107,2014-10-02T13:55:00,4,28254414,201373
OK,107,57,883,107,2014-10-02T14:10:00,5,28254991,201373
OK,110,55,883,110,2014-10-02T14:15:00,8,28255440,201373
OK,110,55,883,110,2014-10-02T14:20:00,6,28255868,201373
OK,120,51,883,120,2014-10-02T14:25:00,1,28256317,201373
OK,104,58,883,104,2014-10-02T14:30:00,7,28256745,201373
OK,101,60,883,101,2014-10-02T14:35:00,3,28257194,201373
OK,106,57,883,106,2014-10-02T14:40:00,0,28257635,201373
OK,110,55,883,110,2014-10-02T14:45:00,2,28258083,201373
OK,104,58,883,104,2014-10-02T14:50:00,6,28258516,201373
OK,111,55,883,111,2014-10-02T14:55:00,7,28258962,201373
OK,111,55,883,111,2014-10-02T15:00:00,0,28259411,201373
OK,113,54,883,113,2014-10-02T15:05:00,4,28259858,201373
OK,108,56,883,108,2014-10-02T15:10:00,6,28260291,201373
OK,95,64,883,95,2014-10-02T15:15:00,4,28260740,201373
OK,89,68,883,89,2014-10-02T15:20:00,1,28261180,201373
OK,102,60,883,102,2014-10-02T15:25:00,2,28261562,201373
OK,100,61,883,100,2014-10-02T15:30:00,1,28261992,201373
OK,102,60,883,102,2014-10-02T15:35:00,3,28262439,201373
OK,100,61,883,100,2014-10-02T15:40:00,2,28262885,201373
OK,103,59,883,103,2014-10-02T15:45:00,6,28263323,201373
OK,112,54,883,112,2014-10-02T15:50:00,1,28263764,201373
OK,112,54,883,112,2014-10-02T15:55:00,0,28264166,201373
OK,112,54,883,112,2014-10-02T16:00:00,0,28264615,201373
OK,113,54,883,113,2014-10-02T16:05:00,1,28265053,201373
OK,113,54,883,113,2014-10-02T16:10:00,0,28265493,201373
OK,113,54,883,113,2014-10-02T16:15:00,0,28265889,201373
OK,126,48,883,126,2014-10-02T16:20:00,5,28266338,201373